When you browse on this site, cookies collect data to enhance your experience and personalize the content and advertising you see.
Visit our Privacy Policy to learn more. By continuing to use the site, you agree to this use of cookies and data.
EN

Hourly Weather Banda

Today, 14 August, Friday

Time Temperature Precipitation Wind Pressure Humidity
00:00 +32°C° 0 mm 2 mps 738 mmHg 73%
01:00 +32°C° 0 mm 2 mps 738 mmHg 74%
02:00 +31°C° 0 mm 1 mps 737 mmHg 76%
03:00 +31°C° 0 mm 2 mps 737 mmHg 78%
04:00 +30°C° 0 mm 2 mps 737 mmHg 80%
05:00 +30°C° 0 mm 2 mps 737 mmHg 82%
06:00 +31°C° 0.2 mm 2 mps 738 mmHg 79%
07:00 +31°C° 0.2 mm 2 mps 738 mmHg 75%
08:00 +32°C° 0.2 mm 1 mps 738 mmHg 72%
09:00 +34°C° 0.2 mm 2 mps 738 mmHg 67%
10:00 +35°C° 0.2 mm 2 mps 738 mmHg 62%
11:00 +37°C° 0.2 mm 2 mps 738 mmHg 56%
12:00 +37°C° 0.1 mm 2 mps 737 mmHg 55%
13:00 +37°C° 0.1 mm 1 mps 736 mmHg 53%
14:00 +37°C° 0.1 mm 1 mps 735 mmHg 52%
15:00 +37°C° 0.1 mm 1 mps 735 mmHg 53%
16:00 +37°C° 0.1 mm 1 mps 735 mmHg 54%
17:00 +36°C° 0.1 mm 1 mps 735 mmHg 55%
18:00 +37°C° 0.2 mm 2 mps 735 mmHg 59%
19:00 +36°C° 0.2 mm 2 mps 735 mmHg 63%
20:00 +35°C° 0.2 mm 3 mps 736 mmHg 67%
21:00 +35°C° 0.4 mm 3 mps 736 mmHg 69%
22:00 +34°C° 0.4 mm 3 mps 736 mmHg 72%
23:00 +33°C° 0.4 mm 3 mps 736 mmHg 74%

Tomorrow, 15 August, Saturday

Time Temperature Precipitation Wind Pressure Humidity
00:00 +33°C° 0.6 mm 3 mps 736 mmHg 76%
01:00 +33°C° 0.6 mm 3 mps 736 mmHg 78%
02:00 +31°C° 0.6 mm 3 mps 736 mmHg 80%
03:00 +31°C° 0.5 mm 3 mps 736 mmHg 80%
04:00 +31°C° 0.5 mm 3 mps 736 mmHg 81%
05:00 +31°C° 0.5 mm 3 mps 736 mmHg 81%
06:00 +32°C° 0.3 mm 4 mps 736 mmHg 79%
07:00 +33°C° 0.3 mm 4 mps 737 mmHg 77%
08:00 +33°C° 0.3 mm 4 mps 737 mmHg 75%
09:00 +34°C° 0 mm 4 mps 737 mmHg 70%
10:00 +36°C° 0 mm 4 mps 737 mmHg 65%
11:00 +37°C° 0 mm 3 mps 737 mmHg 60%
12:00 +37°C° 0 mm 3 mps 736 mmHg 58%
13:00 +38°C° 0 mm 2 mps 736 mmHg 56%
14:00 +38°C° 0 mm 2 mps 735 mmHg 54%
15:00 +38°C° 0.1 mm 2 mps 735 mmHg 55%
16:00 +37°C° 0.1 mm 1 mps 735 mmHg 56%
17:00 +37°C° 0.1 mm 1 mps 735 mmHg 57%
18:00 +37°C° 1.8 mm 2 mps 735 mmHg 63%
19:00 +35°C° 1.8 mm 2 mps 736 mmHg 68%
20:00 +34°C° 1.8 mm 2 mps 737 mmHg 73%
21:00 +34°C° 2.4 mm 2 mps 737 mmHg 75%
22:00 +34°C° 2.4 mm 2 mps 737 mmHg 77%
23:00 +32°C° 2.4 mm 2 mps 737 mmHg 79%

Day after tomorrow, 16 August, Sunday

Time Temperature Precipitation Wind Pressure Humidity
00:00 +32°C° 0.3 mm 2 mps 737 mmHg 79%
01:00 +32°C° 0.3 mm 1 mps 737 mmHg 79%
02:00 +32°C° 0.3 mm 1 mps 736 mmHg 79%
03:00 +32°C° 1.4 mm 1 mps 736 mmHg 81%
04:00 +31°C° 1.4 mm 2 mps 736 mmHg 82%
05:00 +31°C° 1.4 mm 2 mps 737 mmHg 84%
06:00 +31°C° 1.5 mm 2 mps 737 mmHg 85%
07:00 +30°C° 1.5 mm 2 mps 737 mmHg 86%
08:00 +30°C° 1.5 mm 3 mps 738 mmHg 87%
09:00 +31°C° 0.2 mm 2 mps 738 mmHg 82%
10:00 +32°C° 0.2 mm 2 mps 737 mmHg 77%
11:00 +33°C° 0.2 mm 1 mps 737 mmHg 72%
12:00 +34°C° 0.5 mm 1 mps 737 mmHg 67%
13:00 +35°C° 0.5 mm 1 mps 736 mmHg 62%
14:00 +36°C° 0.5 mm 1 mps 736 mmHg 57%
15:00 +36°C° 0.9 mm 1 mps 735 mmHg 58%
16:00 +36°C° 0.9 mm 1 mps 735 mmHg 58%
17:00 +36°C° 0.9 mm 1 mps 735 mmHg 58%
18:00 +35°C° 1 mm 1 mps 735 mmHg 63%
19:00 +34°C° 1 mm 1 mps 736 mmHg 69%
20:00 +34°C° 1 mm 2 mps 736 mmHg 74%
21:00 +34°C° 3.2 mm 2 mps 737 mmHg 75%
22:00 +32°C° 3.2 mm 2 mps 737 mmHg 77%
23:00 +33°C° 3.2 mm 3 mps 737 mmHg 79%

17 August, Monday

Time Temperature Precipitation Wind Pressure Humidity
00:00 +33°C° 1.6 mm 3 mps 737 mmHg 80%
01:00 +31°C° 1.6 mm 3 mps 736 mmHg 81%
02:00 +31°C° 1.6 mm 3 mps 736 mmHg 82%
03:00 +31°C° 0.5 mm 3 mps 736 mmHg 83%
04:00 +31°C° 0.5 mm 2 mps 736 mmHg 84%
05:00 +31°C° 0.5 mm 2 mps 736 mmHg 85%
06:00 +31°C° 0.1 mm 2 mps 737 mmHg 82%
07:00 +33°C° 0.1 mm 3 mps 737 mmHg 80%
08:00 +33°C° 0.1 mm 3 mps 738 mmHg 77%
09:00 +34°C° 0.9 mm 3 mps 737 mmHg 73%
10:00 +35°C° 0.9 mm 3 mps 737 mmHg 69%
11:00 +36°C° 0.9 mm 2 mps 737 mmHg 65%
12:00 +36°C° 1.3 mm 2 mps 736 mmHg 62%
13:00 +37°C° 1.3 mm 2 mps 736 mmHg 59%
14:00 +38°C° 1.3 mm 2 mps 735 mmHg 56%
15:00 +37°C° 0.8 mm 2 mps 735 mmHg 60%
16:00 +36°C° 0.8 mm 3 mps 735 mmHg 63%
17:00 +36°C° 0.8 mm 4 mps 735 mmHg 67%
18:00 +35°C° 2.3 mm 4 mps 735 mmHg 71%
19:00 +34°C° 2.3 mm 4 mps 736 mmHg 76%
20:00 +33°C° 2.3 mm 5 mps 737 mmHg 80%
21:00 +32°C° 0.8 mm 5 mps 737 mmHg 81%
22:00 +32°C° 0.8 mm 5 mps 737 mmHg 82%
23:00 +32°C° 0.8 mm 5 mps 737 mmHg 83%

18 August, Tuesday

Time Temperature Precipitation Wind Pressure Humidity
00:00 +30°C° 0 mm 5 mps 737 mmHg 84%
01:00 +30°C° 0 mm 5 mps 737 mmHg 85%
02:00 +30°C° 0 mm 5 mps 736 mmHg 86%
03:00 +30°C° 0 mm 5 mps 737 mmHg 87%
04:00 +29°C° 0 mm 4 mps 737 mmHg 87%
05:00 +29°C° 0 mm 4 mps 737 mmHg 87%
06:00 +30°C° 0 mm 4 mps 737 mmHg 85%
07:00 +30°C° 0 mm 5 mps 738 mmHg 83%
08:00 +32°C° 0 mm 5 mps 738 mmHg 81%
09:00 +33°C° 0.2 mm 5 mps 738 mmHg 77%
10:00 +34°C° 0.2 mm 5 mps 738 mmHg 73%
11:00 +35°C° 0.2 mm 5 mps 738 mmHg 69%
12:00 +35°C° 1.4 mm 5 mps 737 mmHg 68%
13:00 +36°C° 1.4 mm 5 mps 736 mmHg 67%
14:00 +36°C° 1.4 mm 5 mps 736 mmHg 67%
15:00 +35°C° 2.4 mm 5 mps 736 mmHg 70%
16:00 +35°C° 2.4 mm 5 mps 736 mmHg 72%
17:00 +34°C° 2.4 mm 4 mps 735 mmHg 75%
18:00 +33°C° 2.6 mm 5 mps 736 mmHg 78%
19:00 +33°C° 2.6 mm 5 mps 737 mmHg 80%
20:00 +32°C° 2.6 mm 5 mps 737 mmHg 82%
21:00 +30°C° 0 mm 5 mps 737 mmHg 83%
22:00 +30°C° 0 mm 5 mps 737 mmHg 84%
23:00 +30°C° 0 mm 4 mps 738 mmHg 85%

19 August, Wednesday

Time Temperature Precipitation Wind Pressure Humidity
00:00 +29°C° 0 mm 4 mps 737 mmHg 85%
01:00 +29°C° 0 mm 3 mps 737 mmHg 86%
02:00 +29°C° 0 mm 3 mps 737 mmHg 86%
03:00 +29°C° 0 mm 3 mps 737 mmHg 86%
04:00 +29°C° 0 mm 3 mps 737 mmHg 87%
05:00 +29°C° 0 mm 3 mps 737 mmHg 87%
06:00 +29°C° 0 mm 3 mps 737 mmHg 84%
07:00 +30°C° 0 mm 4 mps 738 mmHg 82%
08:00 +30°C° 0 mm 4 mps 738 mmHg 79%
09:00 +32°C° 0 mm 4 mps 738 mmHg 77%
10:00 +32°C° 0 mm 4 mps 737 mmHg 75%
11:00 +33°C° 0 mm 3 mps 737 mmHg 74%
12:00 +34°C° 0 mm 3 mps 737 mmHg 72%
13:00 +34°C° 0 mm 3 mps 736 mmHg 70%
14:00 +35°C° 0 mm 3 mps 736 mmHg 68%
15:00 +35°C° 0 mm 3 mps 736 mmHg 69%
16:00 +34°C° 0 mm 3 mps 735 mmHg 70%
17:00 +34°C° 0 mm 3 mps 735 mmHg 71%
18:00 +33°C° 2.4 mm 4 mps 736 mmHg 74%
19:00 +33°C° 2.4 mm 4 mps 736 mmHg 78%
20:00 +32°C° 2.4 mm 5 mps 737 mmHg 81%
21:00 +30°C° 2.2 mm 5 mps 737 mmHg 83%
22:00 +30°C° 2.2 mm 5 mps 737 mmHg 85%
23:00 +30°C° 2.2 mm 5 mps 738 mmHg 87%
Show more